Wind_Speed
69 71 69 66 66 67 59 55 57 59 54 59 59 63 67 62 62 51 56 55 56 58 50 48 51 52 53 51 51 53 54 45 49 55 55 53 48 46 45 43 45 47 49
79 78 71 68 65 64 59 56 57 60 60 53 57 63 68 66 63 62 57 56 50 55 59 55 53 54 55 56 57 59 57 46 52 56 52 54 48 47 47 47 47 50 50
67 72 71 68 66 62 60 55 54 56 59 55 52 55 64 64 69 66 59 63 59 54 52 56 56 56 61 59 63 60 63 54 53 57 54 55 53 50 49 49 50 53 50
64 59 68 65 63 59 56 56 51 52 53 50 49 55 62 64 59 59 59 55 52 44 45 53 56 57 60 66 64 63 65 60 53 53 53 51 49 46 49 53 52 52 51
75 72 64 64 63 61 57 58 54 49 49 48 46 48 63 60 54 52 52 61 58 46 44 49 52 56 58 63 59 61 64 57 49 47 49 50 45 49 50 52 52 54 56
60 55 55 60 61 59 59 56 53 46 47 53 48 48 48 61 57 50 48 47 51 55 51 48 54 57 57 52 53 54 59 48 45 45 47 45 47 49 54 55 56 61 60
62 61 57 53 55 53 53 54 56 51 48 53 56 54 50 53 52 47 47 49 56 55 54 58 60 60 57 50 48 51 44 41 41 41 43 46 49 50 55 54 55 58 59
65 58 54 58 54 52 53 53 54 54 53 49 52 52 53 52 53 52 50 52 53 55 58 52 44 42 42 42 39 36 35 36 39 42 45 48 47 50 52 53 55 52 52
70 67 66 62 62 62 57 55 57 55 54 48 47 53 55 52 54 53 52 48 46 49 49 43 41 39 36 34 35 35 36 39 42 43 44 46 47 49 50 50 48 50 52
72 66 63 58 58 55 56 58 50 45 46 47 42 44 45 51 49 51 52 50 47 45 47 43 40 41 40 35 33 36 37 39 44 45 45 46 46 48 48 49 49 52 52
56 67 65 62 60 60 56 56 50 46 44 40 38 38 35 36 38 41 48 47 43 42 39 38 42 42 36 36 38 42 44 45 42 45 48 49 49 50 51 51 52 52 53
61 55 59 64 60 62 60 55 52 51 48 45 44 39 36 35 37 37 36 37 46 44 43 42 35 40 41 42 44 47 48 49 47 47 46 45 46 48 51 52 53 52 51
53 53 54 64 57 60 63 59 54 52 50 48 46 43 42 39 39 33 31 32 33 38 39 40 44 45 47 45 47 50 50 50 50 49 47 48 50 52 52 51 51 49 48
54 52 57 60 61 64 66 64 58 53 54 53 50 49 45 43 41 39 34 33 33 35 32 38 47 46 44 42 42 45 44 43 43 42 43 41 40 41 42 44 46 46 48
54 56 61 59 57 61 62 65 63 56 52 54 50 47 47 46 44 43 43 40 38 36 39 38 37 36 37 38 39 41 40 41 42 41 41 39 39 41 42 44 47 49 52
64 58 63 61 60 57 63 68 67 61 66 61 53 52 50 52 51 49 46 44 42 43 42 41 41 41 40 40 41 42 43 43 43 42 43 44 43 44 46 48 48 49 49
67 65 65 65 64 62 61 61 64 66 67 69 61 61 56 61 58 53 50 48 47 46 44 40 39 39 41 43 45 46 45 45 44 45 46 46 46 47 46 45 45 46 48
65 63 57 63 65 65 65 63 60 62 68 70 69 67 65 63 64 57 53 52 50 50 49 46 45 44 47 48 47 47 48 46 47 47 47 48 47 47 47 47 47 49 50
69 66 60 57 64 68 67 67 66 64 68 69 67 65 67 67 66 60 53 52 54 56 55 51 50 50 51 50 51 51 50 48 47 47 46 45 45 45 44 45 46 48 50
70 67 67 69 63 63 60 64 67 68 69 71 71 69 70 71 66 67 57 55 58 59 58 56 55 54 55 54 55 53 51 50 48 47 47 45 46 46 47 48 49 49 48
68 73 74 70 68 66 60 60 64 69 68 72 75 75 73 72 70 68 66 61 62 61 60 57 55 56 57 57 55 53 51 50 50 48 48 48 49 49 49 49 51 46 45
68 71 69 69 67 65 61 55 55 60 63 65 72 75 75 73 70 67 67 65 64 62 60 58 57 57 56 55 53 52 51 50 49 50 52 52 52 52 51 49 50 51 49
62 64 66 66 68 72 66 63 58 58 58 60 65 67 68 68 67 68 67 64 62 60 59 58 57 56 55 54 52 51 51 51 52 54 55 55 53 54 53 53 54 53 52
56 59 62 64 69 75 74 68 64 62 64 63 61 63 64 64 62 60 60 60 58 57 56 55 55 54 55 55 56 56 56 55 56 56 56 57 57 59 61 60 55 50 53
60 59 60 63 65 66 67 65 65 68 69 67 64 62 61 60 59 60 59 57 57 57 56 56 55 56 57 58 58 57 57 57 57 55 55 55 56 58 60 57 56 58 58
61 61 61 60 61 61 65 68 69 70 69 68 67 64 63 63 64 64 63 61 61 61 60 61 60 61 61 61 61 58 55 54 54 55 55 56 56 54 54 55 58 58 57
Wind_Direction
220 221 217 218 221 224 226 227 229 232 234 237 238 239 238 234 235 235 233 232 232 236 234 238 235 239 242 244 245 247 252 252 254 257 264 267 260 265 270 270 272 276 279
216 220 219 217 220 221 224 227 229 234 235 237 236 234 235 236 233 228 234 240 246 237 240 241 249 249 246 246 248 253 255 249 253 259 263 262 264 261 269 271 273 276 279
199 208 212 216 218 218 223 227 229 232 236 236 236 237 230 235 231 236 238 240 249 249 244 242 250 253 249 248 249 253 257 253 252 255 260 263 264 264 265 268 275 277 278
211 200 211 213 215 216 221 223 227 229 228 230 231 229 229 231 233 237 242 242 242 238 241 246 248 247 247 255 253 251 256 259 260 261 265 270 271 265 266 268 271 273 276
212 217 212 212 213 215 218 223 227 223 226 225 223 227 225 225 232 235 238 238 239 244 252 246 244 245 247 250 253 254 257 257 257 264 266 267 267 262 263 267 269 275 278
204 205 210 209 212 217 219 220 223 224 230 226 233 231 232 228 232 233 230 234 241 242 238 247 244 245 244 244 250 255 254 255 259 260 264 266 268 264 264 267 271 276 279
209 203 207 211 215 221 222 220 220 225 223 219 227 231 229 227 228 226 227 234 232 229 234 236 239 240 239 239 245 248 250 252 255 261 265 266 267 268 270 273 276 279 282
206 203 202 207 212 215 213 218 215 220 221 217 221 219 227 228 224 225 224 223 224 228 230 228 229 235 241 243 242 247 248 252 254 257 261 266 269 269 273 276 281 283 285
200 203 205 201 208 210 208 210 212 212 214 213 213 216 213 212 215 216 217 213 221 223 227 228 236 239 235 238 241 248 249 251 256 261 264 267 270 271 274 276 276 279 282
198 199 197 197 200 204 206 210 206 205 210 208 201 205 211 214 216 217 218 222 222 225 225 227 232 234 237 241 247 251 255 254 258 262 264 266 269 269 270 272 278 281 287
197 200 198 198 203 209 209 208 205 206 208 214 218 208 205 206 211 219 223 227 229 227 231 233 238 231 238 245 253 251 253 255 254 259 262 265 268 272 275 276 280 283 287
206 204 201 198 199 207 212 211 205 208 208 213 212 215 218 219 211 216 228 227 232 235 234 230 234 235 244 252 253 253 252 256 256 262 266 271 273 275 278 281 283 286 286
215 209 204 205 200 202 212 212 209 212 213 215 217 218 218 221 224 227 221 226 220 225 223 226 228 239 246 247 253 257 256 258 262 265 270 276 278 281 283 284 284 284 288
202 211 210 206 205 203 206 211 213 213 220 219 217 221 223 222 220 231 229 227 230 235 231 236 237 239 246 253 257 258 261 263 266 269 271 274 279 286 288 286 286 286 290
205 210 205 203 204 204 202 210 214 213 215 215 217 221 225 223 220 221 224 227 231 234 238 237 245 250 252 254 257 259 261 263 266 270 275 278 280 283 287 288 288 291 293
213 209 208 209 209 207 206 209 213 216 220 223 224 226 227 227 223 223 223 228 230 232 233 237 243 247 250 251 253 255 259 263 266 269 270 273 276 279 282 284 288 290 291
216 217 213 212 213 213 211 209 208 212 219 223 223 229 229 230 226 225 230 234 233 234 234 238 243 250 253 254 257 259 260 263 266 269 273 274 276 279 282 284 287 290 293
218 217 220 216 216 214 213 213 214 211 221 222 224 227 233 231 227 225 231 233 238 235 239 242 250 256 256 256 257 259 263 267 271 276 275 274 276 279 283 288 290 292 293
224 229 229 222 219 217 215 215 215 214 218 222 223 228 232 228 229 226 231 235 237 238 238 244 251 254 254 254 257 261 264 266 266 267 269 273 277 279 282 284 286 288 289
223 225 223 221 218 218 221 222 221 217 219 221 226 228 230 228 231 230 233 237 237 237 241 250 250 250 252 254 258 260 262 263 264 268 271 273 275 279 280 282 282 283 287
222 220 219 221 221 224 227 227 225 223 222 223 224 228 230 231 232 234 234 239 236 239 243 245 246 248 251 254 255 257 259 263 267 269 270 273 275 276 278 278 280 279 284
224 223 222 219 220 221 215 215 220 223 225 224 225 226 227 229 232 234 235 236 239 240 241 243 246 249 251 253 256 258 261 265 266 268 271 273 275 275 275 274 275 279 285
217 221 224 224 219 216 212 213 217 219 217 219 219 220 224 229 232 236 237 237 235 236 239 242 245 248 251 254 257 260 263 264 265 267 271 273 274 272 271 271 275 281 285
218 217 218 221 223 224 225 225 220 221 222 220 220 222 223 227 230 228 228 231 234 238 243 246 249 252 254 258 261 263 266 268 270 270 270 272 273 273 274 270 280 279 287
219 217 216 217 219 222 225 226 224 223 220 221 220 221 222 223 224 226 231 235 240 245 248 251 253 255 257 259 260 263 265 267 269 270 270 270 271 271 272 275 279 283 289
224 222 220 217 215 216 218 218 219 221 222 220 219 220 222 225 227 229 232 235 239 243 246 249 252 254 254 254 256 258 261 264 265 264 264 266 268 270 277 282 285 287 291
Height
5568 5579 5590 5601 5612 5622 5630 5638 5648 5657 5667 5676 5683 5689 5698 5708 5716 5722 5731 5738 5745 5751 5756 5761 5766 5771 5777 5782 5786 5788 5790 5793 5797 5799 5800 5801 5803 5804 5804 5804 5802 5800 5799
5560 5565 5579 5590 5602 5612 5621 5629 5636 5647 5656 5664 5673 5680 5687 5696 5705 5713 5721 5729 5735 5742 5747 5752 5758 5762 5766 5771 5775 5777 5780 5783 5786 5787 5789 5790 5792 5794 5794 5793 5792 5790 5789
5538 5553 5567 5580 5591 5601 5610 5619 5626 5635 5644 5652 5661 5668 5676 5684 5693 5701 5708 5717 5724 5732 5736 5741 5746 5750 5756 5759 5762 5765 5768 5771 5774 5776 5778 5779 5782 5783 5783 5783 5781 5780 5777
5536 5542 5556 5569 5581 5591 5600 5609 5616 5624 5632 5640 5649 5656 5664 5673 5681 5688 5697 5705 5713 5719 5725 5730 5733 5738 5742 5745 5748 5752 5756 5760 5762 5765 5768 5769 5770 5772 5773 5772 5772 5769 5767
5526 5537 5548 5558 5570 5580 5590 5598 5607 5614 5620 5627 5636 5643 5652 5662 5670 5678 5685 5693 5700 5707 5712 5717 5722 5725 5729 5733 5736 5740 5744 5748 5750 5754 5757 5759 5760 5760 5760 5761 5760 5759 5757
5518 5526 5537 5549 5560 5570 5579 5587 5596 5603 5609 5617 5625 5634 5640 5650 5659 5667 5674 5681 5687 5694 5700 5705 5710 5714 5718 5721 5725 5728 5732 5737 5739 5743 5744 5747 5748 5747 5749 5749 5749 5747 5747
5509 5518 5530 5540 5550 5559 5568 5576 5586 5594 5601 5607 5614 5622 5630 5638 5647 5652 5660 5667 5674 5679 5685 5691 5697 5701 5705 5709 5713 5718 5721 5724 5728 5731 5733 5735 5735 5735 5737 5737 5735 5734 5733
5500 5510 5521 5532 5541 5551 5559 5567 5576 5584 5592 5598 5605 5614 5621 5628 5634 5640 5646 5654 5661 5669 5675 5679 5684 5691 5696 5700 5704 5706 5710 5713 5716 5718 5722 5723 5724 5725 5725 5725 5724 5722 5721
5489 5499 5510 5519 5531 5541 5549 5558 5566 5574 5583 5590 5597 5604 5612 5618 5624 5629 5636 5643 5651 5657 5664 5668 5676 5681 5686 5690 5694 5697 5701 5703 5705 5708 5711 5712 5713 5713 5713 5712 5712 5710 5709
5479 5489 5499 5509 5520 5529 5538 5549 5558 5565 5573 5581 5587 5595 5601 5608 5614 5621 5628 5635 5643 5649 5654 5659 5666 5671 5675 5680 5684 5688 5691 5693 5698 5699 5699 5701 5701 5702 5701 5699 5698 5698 5697
5467 5478 5488 5497 5509 5520 5529 5540 5548 5556 5565 5572 5578 5585 5591 5598 5605 5612 5619 5628 5635 5640 5646 5649 5657 5661 5666 5671 5675 5678 5680 5683 5684 5687 5689 5690 5690 5691 5690 5690 5688 5687 5684
5459 5469 5477 5488 5498 5509 5520 5530 5539 5547 5555 5564 5571 5577 5582 5592 5598 5604 5612 5617 5624 5630 5636 5641 5647 5653 5657 5661 5665 5668 5671 5673 5675 5678 5678 5679 5680 5680 5681 5679 5677 5676 5673
5450 5457 5467 5477 5487 5498 5509 5520 5529 5537 5546 5555 5561 5569 5576 5583 5590 5595 5602 5608 5613 5621 5626 5632 5638 5643 5647 5651 5655 5658 5661 5664 5667 5668 5669 5669 5669 5670 5669 5667 5665 5664 5663
5439 5447 5457 5467 5476 5486 5498 5509 5519 5528 5536 5544 5553 5561 5566 5574 5581 5586 5594 5601 5607 5613 5618 5623 5628 5633 5637 5641 5645 5649 5652 5654 5656 5657 5658 5658 5658 5658 5657 5656 5655 5654 5652
5427 5436 5446 5455 5465 5474 5483 5496 5507 5517 5525 5534 5543 5550 5557 5565 5572 5579 5587 5593 5597 5604 5610 5614 5620 5623 5626 5631 5634 5637 5639 5642 5645 5645 5647 5647 5647 5646 5646 5645 5644 5641 5640
5417 5425 5434 5444 5452 5462 5471 5482 5493 5504 5514 5523 5531 5539 5548 5554 5561 5568 5575 5582 5588 5595 5600 5606 5610 5614 5617 5620 5624 5626 5629 5632 5634 5634 5635 5636 5635 5634 5634 5633 5632 5630 5628
5404 5413 5422 5431 5440 5450 5459 5469 5478 5489 5501 5510 5520 5528 5536 5544 5550 5557 5564 5570 5576 5584 5590 5594 5599 5603 5606 5610 5613 5616 5619 5621 5622 5623 5623 5624 5623 5624 5623 5621 5620 5618 5616
5391 5400 5408 5418 5427 5437 5447 5457 5466 5476 5486 5496 5506 5516 5523 5531 5537 5545 5552 5559 5566 5572 5577 5582 5587 5592 5595 5599 5603 5605 5607 5608 5611 5612 5612 5614 5613 5612 5611 5610 5609 5607 5605
5375 5385 5396 5405 5415 5424 5433 5443 5453 5463 5473 5482 5492 5500 5508 5516 5523 5531 5540 5547 5553 5559 5564 5569 5574 5579 5583 5587 5589 5592 5595 5597 5598 5599 5599 5600 5600 5600 5600 5600 5597 5595 5593
5362 5371 5382 5392 5401 5411 5420 5429 5439 5449 5458 5468 5476 5485 5493 5501 5510 5520 5527 5533 5539 5545 5550 5556 5560 5564 5569 5573 5576 5579 5582 5584 5585 5585 5586 5587 5588 5588 5588 5587 5586 5584 5581
5346 5357 5367 5377 5387 5396 5406 5414 5424 5434 5443 5452 5462 5470 5478 5486 5495 5505 5512 5518 5523 5530 5536 5542 5546 5551 5555 5559 5563 5565 5567 5570 5571 5572 5574 5575 5576 5576 5576 5574 5573 5571 5569
5330 5341 5351 5362 5371 5383 5392 5401 5411 5419 5428 5436 5446 5456 5465 5471 5480 5489 5496 5502 5508 5514 5521 5527 5532 5537 5541 5545 5548 5552 5553 5556 5558 5561 5562 5563 5564 5564 5562 5561 5560 5558 5557
5315 5325 5335 5345 5356 5368 5377 5387 5398 5407 5416 5424 5433 5442 5450 5457 5465 5473 5480 5486 5493 5499 5506 5512 5517 5522 5527 5531 5534 5538 5541 5543 5545 5548 5549 5550 5550 5550 5550 5548 5546 5545 5544
5302 5310 5320 5330 5341 5352 5362 5373 5383 5394 5403 5411 5419 5427 5435 5442 5451 5458 5465 5471 5478 5485 5491 5497 5503 5508 5512 5516 5521 5525 5528 5530 5532 5534 5535 5537 5537 5537 5536 5535 5534 5531 5530
5289 5299 5307 5316 5327 5337 5347 5357 5368 5378 5387 5396 5403 5412 5420 5428 5435 5443 5450 5457 5463 5469 5475 5482 5488 5493 5497 5502 5506 5510 5513 5515 5518 5520 5521 5522 5521 5521 5523 5521 5519 5518 5516
5274 5284 5294 5304 5313 5323 5332 5341 5352 5362 5371 5379 5388 5396 5404 5412 5420 5427 5434 5441 5447 5453 5460 5466 5472 5477 5482 5487 5490 5494 5497 5499 5502 5504 5505 5506 5507 5507 5507 5506 5505 5504 5501